Location: Forli
(44.2227°N, 12.0407°E)
Time: 13:41:45
(UTC+02:00)

UWE-3 - Pass Details

Date: 28 April 2026
Orbit: 542 x 613 km, 97.9° (Epoch: 10 May)

Event Time Altitude Azimuth Distance (km) Brightness Sun altitude
Rises 02:48:05 0° 36° (NE) 2,711 ? -27.5°
Reaches altitude 10° 02:51:55 10° 75° (ENE) 1,810 ? -27.2°
Maximum altitude 02:52:54 11° 90° (E) 1,759 ? -27.1°
Drops below altitude 10° 02:53:53 10° 104° (ESE) 1,808 ? -27.0°
Enters shadow 02:53:56 10° 105° (ESE) 1,814 ? -27.0°
